Regional Weather Roundup
Issued by NWS

Home | Current Version | Previous Version | Text Only | Print | Product List | Glossary Off
Versions: 1 2 3 4 5 6 7 8 9 10 11 12 13 14 15 16 17 18 19 20 21 22 23 24 25 26 27 28 29 30 31 32 33 34 35 36 37 38 39 40 41 42 43 44 45 46 47 48 49 50

000
ASUS45 KCYS 292110
RWRWY

WYOMING REGIONAL WEATHER ROUNDUP
NATIONAL WEATHER SERVICE CHEYENNE WY
300 PM MDT SAT AUG 29 2015

NOTE:  "FAIR" INDICATES FEW OR NO CLOUDS BELOW 12,000 FEET
WITH NO SIGNIFICANT WEATHER AND/OR OBSTRUCTIONS TO VISIBILITY.

WYZ001-292200-
YELLOWSTONE NATIONAL PARK

CITY           SKY/WX    TMP DP  RH WIND       PRES   REMARKS
LK YELLOWSTONE   N/A     63  43  48 CALM      30.32F
W YELLOWSTONE  NOT AVBL

$$
WYZ002>013-054>058-071-098>099-292200-
NORTHERN WYOMING

CITY           SKY/WX    TMP DP  RH WIND       PRES   REMARKS
JACKSON        PTSUNNY   79  39  24 SW7       30.18F
CODY           FAIR      88  37  16 SE9       30.02S
GREYBULL       FAIR      97  30   9 S14       29.92F HX  91
WORLAND        FAIR      96  33  11 VRB3      29.95F HX  91
SHERIDAN       FAIR      98  31   9 VRB5      29.92F HX  92
BUFFALO        FAIR      96  32  10 N9        30.00F HX  90
GILLETTE       FAIR      95  36  12 SW12G22   29.98F HX  90
HULETT         FAIR      93  37  14 S10G20    30.02F
NEWCASTLE      FAIR      91  32  12 SE9       30.04F

$$
WYZ014>020-022>026-101>103-292200-
CENTRAL WYOMING

CITY           SKY/WX    TMP DP  RH WIND       PRES   REMARKS
BIG PINEY      PTSUNNY   84  34  16 S10       30.23F
PINEDALE       MOCLDY    81  32  17 S9        30.24F
DUBOIS         FAIR      81  32  17 W14G20    30.21F
LANDER         FAIR      89  37  16 VRB6      30.07F
RIVERTON       FAIR      91  35  13 W9        30.09F
CASPER         FAIR      91  27  10 SW16      30.10F
DOUGLAS        FAIR      93  30  10 VRB5      30.09F

$$
WYZ021-027>030-104>119-292200-
SOUTHERN WYOMING

CITY           SKY/WX    TMP DP  RH WIND       PRES   REMARKS
EVANSTON       FAIR      84  35  17 SW17G29   30.25F
KEMMERER       MOCLDY    82  30  15 SW13G22   30.26S
FORT BRIDGER   MOCLDY    86  34  15 SW8G16    30.26F
ROCK SPRINGS   FAIR      86  29  12 NW7       30.22F
DIXON          FAIR      86  29  12 W8        30.26F
RAWLINS        FAIR      85  28  12 VRB6      30.25F
SARATOGA       FAIR      81  28  15 CALM      30.29F
LARAMIE        FAIR      80  25  13 VRB6      30.29F
CHEYENNE       FAIR      84  35  17 VRB7      30.23F
TORRINGTON     FAIR      94  37  13 S8G18     30.05F
PINE BLUFFS    FAIR      88  32  13 S13G20    30.18F

$$



USA.gov is the U.S. government's official web portal to all federal, state and local government web resources and services.